| time (UTC) | temp F | wind direction | speed knots | gust knots | rain 1hr in | rain 24hr in | rain mn in | humidity % | barometer mb |
| 20260504081714 | 64 | 223 | 3.5 | 3.5 | 0.00 | 0.00 | 0.00 | 56 | 1010.5 |
| 20260504081210 | 64 | 222 | 2.6 | 3.5 | 0.00 | 0.00 | 0.00 | 56 | 1010.3 |
| 20260504080706 | 64 | 226 | 3.5 | 4.3 | 0.00 | 0.00 | 0.00 | 56 | 1010.2 |
| 20260504080203 | 64 | 244 | 0.0 | 0.9 | 0.00 | 0.00 | 0.00 | 56 | 1010.3 |
| 20260504070131 | 64 | 222 | 0.9 | 0.9 | 0.00 | 0.00 | 0.00 | 56 | 1010.9 |
| 20260504050519 | 67 | 197 | 2.6 | 3.5 | 0.00 | 0.00 | 0.00 | 55 | 1011.6 |
| 20260504050016 | 67 | 218 | 2.6 | 2.6 | 0.00 | 0.00 | 0.00 | 54 | 1011.4 |
| 20260504045513 | 67 | 225 | 4.3 | 6.1 | 0.00 | 0.00 | 0.00 | 55 | 1011.5 |
| 20260504045008 | 67 | 198 | 4.3 | 6.1 | 0.00 | 0.00 | 0.00 | 55 | 1011.6 |
| 20260504044506 | 67 | 248 | 1.7 | 3.5 | 0.00 | 0.00 | 0.00 | 54 | 1011.7 |
| 20260504044003 | 67 | 203 | 1.7 | 3.5 | 0.00 | 0.00 | 0.00 | 54 | 1011.6 |
| 20260504043500 | 67 | 232 | 2.6 | 3.5 | 0.00 | 0.00 | 0.00 | 54 | 1011.6 |
| 20260504042958 | 67 | 179 | 1.7 | 2.6 | 0.00 | 0.00 | 0.00 | 54 | 1011.8 |
| 20260504042454 | 67 | 267 | 1.7 | 2.6 | 0.00 | 0.00 | 0.00 | 54 | 1011.6 |
| 20260504041951 | 67 | 257 | 3.5 | 4.3 | 0.00 | 0.00 | 0.00 | 53 | 1011.6 |
| 20260504041447 | 67 | 200 | 1.7 | 2.6 | 0.00 | 0.00 | 0.00 | 53 | 1011.6 |
| 20260504040943 | 67 | 245 | 2.6 | 3.5 | 0.00 | 0.00 | 0.00 | 53 | 1011.6 |
| 20260504040441 | 68 | 214 | 1.7 | 3.5 | 0.00 | 0.00 | 0.00 | 53 | 1011.8 |
| 20260504035936 | 68 | 210 | 3.5 | 4.3 | 0.00 | 0.00 | 0.00 | 53 | 1011.8 |
| 20260504035434 | 68 | 245 | 2.6 | 2.6 | 0.00 | 0.00 | 0.00 | 53 | 1011.7 |
| 20260504034931 | 68 | 222 | 3.5 | 3.5 | 0.00 | 0.00 | 0.00 | 52 | 1011.7 |
| 20260504034428 | 68 | 188 | 4.3 | 4.3 | 0.00 | 0.00 | 0.00 | 52 | 1011.7 |
| 20260504033925 | 68 | 200 | 2.6 | 3.5 | 0.00 | 0.00 | 0.00 | 53 | 1011.7 |
| 20260504033423 | 67 | 220 | 4.3 | 4.3 | 0.00 | 0.00 | 0.00 | 53 | 1011.8 |
| 20260504032920 | 67 | 204 | 0.9 | 2.6 | 0.00 | 0.00 | 0.00 | 53 | 1011.7 |
| 20260504032417 | 67 | 218 | 0.9 | 0.9 | 0.00 | 0.00 | 0.00 | 53 | 1011.7 |
| 20260504031913 | 67 | 240 | 0.9 | 0.9 | 0.00 | 0.00 | 0.00 | 53 | 1011.8 |
| 20260504031411 | 67 | 211 | 2.6 | 3.5 | 0.00 | 0.00 | 0.00 | 54 | 1011.8 |
| 20260504030907 | 67 | 222 | 1.7 | 2.6 | 0.00 | 0.00 | 0.00 | 53 | 1011.7 |
| 20260504030404 | 67 | 224 | 0.0 | 0.9 | 0.00 | 0.00 | 0.00 | 53 | 1011.9 |
| 20260504025900 | 68 | 243 | 0.9 | 0.9 | 0.00 | 0.00 | 0.00 | 53 | 1011.9 |
| 20260504025357 | 68 | 233 | 0.9 | 0.9 | 0.00 | 0.00 | 0.00 | 53 | 1011.6 |
| 20260504024854 | 68 | 227 | 3.5 | 6.1 | 0.00 | 0.00 | 0.00 | 52 | 1011.7 |
| 20260504024350 | 68 | 190 | 1.7 | 2.6 | 0.00 | 0.00 | 0.00 | 53 | 1011.7 |
| 20260504023848 | 68 | 179 | 1.7 | 2.6 | 0.00 | 0.00 | 0.00 | 54 | 1011.6 |
| 20260504023344 | 68 | 203 | 1.7 | 2.6 | 0.00 | 0.00 | 0.00 | 54 | 1011.6 |
| 20260504022839 | 68 | 233 | 1.7 | 2.6 | 0.00 | 0.00 | 0.00 | 56 | 1011.4 |
| 20260504022337 | 68 | 174 | 1.7 | 2.6 | 0.00 | 0.00 | 0.00 | 56 | 1011.5 |
| 20260504021833 | 67 | 235 | 0.0 | 0.0 | 0.00 | 0.00 | 0.00 | 57 | 1011.5 |
| 20260504021331 | 67 | 202 | 0.9 | 0.9 | 0.00 | 0.00 | 0.00 | 58 | 1011.5 |
| 20260504020828 | 67 | 163 | 2.6 | 3.5 | 0.00 | 0.00 | 0.00 | 58 | 1011.3 |
| 20260504020324 | 67 | 221 | 0.0 | 0.0 | 0.00 | 0.00 | 0.00 | 59 | 1011.4 |
| 20260504015820 | 67 | 218 | 0.0 | 0.0 | 0.00 | 0.00 | 0.00 | 58 | 1011.3 |
| 20260504015317 | 68 | 206 | 0.0 | 0.9 | 0.00 | 0.00 | 0.00 | 58 | 1011.3 |
| 20260504014813 | 69 | 206 | 0.9 | 0.9 | 0.00 | 0.00 | 0.00 | 59 | 1011.2 |
| 20260504014309 | 69 | 214 | 0.9 | 0.9 | 0.00 | 0.00 | 0.00 | 54 | 1011.4 |
| 20260504013807 | 69 | 189 | 1.7 | 2.6 | 0.00 | 0.00 | 0.00 | 54 | 1011.2 |
| 20260504013305 | 70 | 223 | 0.0 | 0.0 | 0.00 | 0.00 | 0.00 | 54 | 1011.2 |
| 20260504012800 | 70 | 197 | 1.7 | 2.6 | 0.00 | 0.00 | 0.00 | 53 | 1011.4 |
| 20260504012259 | 71 | 212 | 0.9 | 0.9 | 0.00 | 0.00 | 0.00 | 52 | 1011.1 |
| 20260504011755 | 72 | 192 | 1.7 | 2.6 | 0.00 | 0.00 | 0.00 | 50 | 1011.4 |
| 20260504011252 | 72 | 225 | 0.0 | 0.0 | 0.00 | 0.00 | 0.00 | 49 | 1011.3 |
| 20260504010748 | 72 | 213 | 0.9 | 2.6 | 0.00 | 0.00 | 0.00 | 49 | 1011.1 |
| 20260504010244 | 73 | 217 | 0.9 | 0.9 | 0.00 | 0.00 | 0.00 | 48 | 1011.1 |
| 20260504005741 | 73 | 219 | 1.7 | 2.6 | 0.00 | 0.00 | 0.00 | 47 | 1011.2 |
| 20260504005238 | 73 | 201 | 0.9 | 0.9 | 0.00 | 0.00 | 0.00 | 47 | 1011.1 |
| 20260504004736 | 74 | 166 | 0.9 | 0.9 | 0.00 | 0.00 | 0.00 | 46 | 1011.2 |
| 20260504004232 | 74 | 198 | 3.5 | 4.3 | 0.00 | 0.00 | 0.00 | 45 | 1011.1 |
| 20260504003729 | 75 | 202 | 2.6 | 3.5 | 0.00 | 0.00 | 0.00 | 44 | 1011.2 |
| 20260504003226 | 75 | 165 | 1.7 | 2.6 | 0.00 | 0.00 | 0.00 | 44 | 1011.2 |
| 20260504002723 | 76 | 227 | 1.7 | 3.5 | 0.00 | 0.00 | 0.00 | 43 | 1011.2 |
| 20260504002219 | 76 | 241 | 2.6 | 4.3 | 0.00 | 0.00 | 0.00 | 43 | 1011.3 |
| 20260504001718 | 77 | 230 | 3.5 | 4.3 | 0.00 | 0.00 | 0.00 | 41 | 1011.2 |
| 20260504001214 | 77 | 191 | 2.6 | 3.5 | 0.00 | 0.00 | 0.00 | 41 | 1011.2 |
| 20260504000711 | 77 | 179 | 3.5 | 3.5 | 0.00 | 0.00 | 0.00 | 40 | 1011.4 |
| 20260504000208 | 77 | 253 | 2.6 | 3.5 | 0.00 | 0.00 | 0.00 | 40 | 1011.5 |
| 20260503235706 | 78 | 216 | 4.3 | 4.3 | 0.00 | 0.00 | 0.00 | 38 | 1011.5 |
| 20260503235203 | 78 | 179 | 4.3 | 4.3 | 0.00 | 0.00 | 0.00 | 39 | 1011.6 |
| 20260503234700 | 79 | 260 | 1.7 | 2.6 | 0.00 | 0.00 | 0.00 | 38 | 1011.8 |
| 20260503234159 | 79 | 217 | 3.5 | 6.1 | 0.00 | 0.00 | 0.00 | 38 | 1011.9 |
| 20260503233655 | 78 | 330 | 1.7 | 2.6 | 0.00 | 0.00 | 0.00 | 39 | 1011.7 |
| 20260503233151 | 78 | 281 | 0.0 | 0.0 | 0.00 | 0.00 | 0.00 | 37 | 1011.9 |
| 20260503232648 | 78 | 269 | 0.0 | 0.9 | 0.00 | 0.00 | 0.00 | 38 | 1012.0 |
| 20260503232145 | 78 | 271 | 0.9 | 0.9 | 0.00 | 0.00 | 0.00 | 37 | 1012.0 |
| 20260503231643 | 79 | 317 | 0.9 | 0.9 | 0.00 | 0.00 | 0.00 | 36 | 1012.0 |
| 20260503231139 | 79 | 264 | 0.0 | 0.9 | 0.00 | 0.00 | 0.00 | 35 | 1012.0 |
| 20260503230636 | 79 | 271 | 2.6 | 3.5 | 0.00 | 0.00 | 0.00 | 36 | 1012.0 |
| 20260503230134 | 79 | 259 | 3.5 | 4.3 | 0.00 | 0.00 | 0.00 | 33 | 1012.0 |
| 20260503225631 | 80 | 194 | 3.5 | 4.3 | 0.00 | 0.00 | 0.00 | 32 | 1012.2 |
| 20260503225130 | 80 | 241 | 0.9 | 0.9 | 0.00 | 0.00 | 0.00 | 32 | 1011.9 |
| 20260503224628 | 80 | 270 | 2.6 | 4.3 | 0.00 | 0.00 | 0.00 | 32 | 1012.1 |
| 20260503224126 | 81 | 222 | 2.6 | 3.5 | 0.00 | 0.00 | 0.00 | 30 | 1012.1 |
| 20260503223624 | 81 | 284 | 1.7 | 3.5 | 0.00 | 0.00 | 0.00 | 29 | 1012.1 |
| 20260503223119 | 82 | 302 | 3.5 | 3.5 | 0.00 | 0.00 | 0.00 | 31 | 1012.1 |
| 20260503222617 | 81 | 276 | 2.6 | 4.3 | 0.00 | 0.00 | 0.00 | 30 | 1012.2 |
| 20260503222115 | 82 | 277 | 0.9 | 0.9 | 0.00 | 0.00 | 0.00 | 35 | 1012.2 |
| 20260503221613 | 83 | 203 | 2.6 | 3.5 | 0.00 | 0.00 | 0.00 | 34 | 1012.0 |
| 20260503221110 | 83 | 262 | 0.9 | 0.9 | 0.00 | 0.00 | 0.00 | 36 | 1012.2 |
| 20260503220607 | 82 | 233 | 3.5 | 4.3 | 0.00 | 0.00 | 0.00 | 36 | 1012.1 |
| 20260503220103 | 81 | 222 | 0.9 | 0.9 | 0.00 | 0.00 | 0.00 | 37 | 1012.3 |
| 20260503215600 | 80 | 161 | 6.1 | 8.7 | 0.00 | 0.00 | 0.00 | 34 | 1012.4 |
| 20260503215057 | 81 | 241 | 5.2 | 8.7 | 0.00 | 0.00 | 0.00 | 36 | 1012.5 |
| 20260503214555 | 82 | 207 | 2.6 | 3.5 | 0.00 | 0.00 | 0.00 | 36 | 1012.4 |
| 20260503214051 | 82 | 274 | 1.7 | 3.5 | 0.00 | 0.00 | 0.00 | 33 | 1012.5 |
| 20260503213550 | 83 | 256 | 4.3 | 6.1 | 0.00 | 0.00 | 0.00 | 34 | 1012.7 |
| 20260503213046 | 81 | 268 | 0.0 | 0.9 | 0.00 | 0.00 | 0.00 | 39 | 1012.7 |
| 20260503212544 | 80 | 188 | 5.2 | 8.7 | 0.00 | 0.00 | 0.00 | 35 | 1012.7 |
| 20260503212042 | 81 | 231 | 8.7 | 13.0 | 0.00 | 0.00 | 0.00 | 33 | 1013.1 |
| 20260503211538 | 82 | 203 | 2.6 | 6.1 | 0.00 | 0.00 | 0.00 | 38 | 1012.8 |
| 20260503211033 | 82 | 266 | 0.9 | 0.9 | 0.00 | 0.00 | 0.00 | 41 | 1013.1 |
| 20260503210531 | 82 | 249 | 2.6 | 3.5 | 0.00 | 0.00 | 0.00 | 35 | 1013.3 |
| 20260503210026 | 81 | 269 | 1.7 | 2.6 | 0.00 | 0.00 | 0.00 | 39 | 1013.3 |
| 20260503205523 | 81 | 282 | 1.7 | 3.5 | 0.00 | 0.00 | 0.00 | 38 | 1013.2 |
| 20260503205020 | 81 | 229 | 1.7 | 2.6 | 0.00 | 0.00 | 0.00 | 40 | 1013.4 |
| 20260503204517 | 80 | 236 | 6.1 | 9.6 | 0.00 | 0.00 | 0.00 | 37 | 1013.6 |
| 20260503204014 | 81 | 243 | 6.1 | 8.7 | 0.00 | 0.00 | 0.00 | 36 | 1013.5 |
| 20260503203511 | 81 | 184 | 9.6 | 10.4 | 0.00 | 0.00 | 0.00 | 38 | 1013.7 |
| 20260503203008 | 82 | 270 | 1.7 | 2.6 | 0.00 | 0.00 | 0.00 | 40 | 1013.8 |
| 20260503202506 | 80 | 267 | 0.9 | 0.9 | 0.00 | 0.00 | 0.00 | 41 | 1014.0 |
| 20260503202004 | 80 | 227 | 5.2 | 7.0 | 0.00 | 0.00 | 0.00 | 39 | 1014.1 |
| 20260503201501 | 80 | 301 | 2.6 | 3.5 | 0.00 | 0.00 | 0.00 | 42 | 1013.9 |
| 20260503200959 | 79 | 181 | 5.2 | 6.1 | 0.00 | 0.00 | 0.00 | 38 | 1014.2 |
| 20260503200455 | 79 | 227 | 6.1 | 8.7 | 0.00 | 0.00 | 0.00 | 38 | 1014.3 |
| 20260503195951 | 79 | 250 | 1.7 | 2.6 | 0.00 | 0.00 | 0.00 | 40 | 1014.2 |
| 20260503195449 | 79 | 206 | 4.3 | 7.0 | 0.00 | 0.00 | 0.00 | 38 | 1014.3 |
| 20260503194945 | 79 | 196 | 7.8 | 12.2 | 0.00 | 0.00 | 0.00 | 40 | 1014.3 |
| 20260503194442 | 79 | 186 | 7.8 | 10.4 | 0.00 | 0.00 | 0.00 | 39 | 1014.6 |
| 20260503193937 | 79 | 210 | 6.1 | 7.0 | 0.00 | 0.00 | 0.00 | 41 | 1014.5 |
| 20260503193433 | 80 | 274 | 0.9 | 0.9 | 0.00 | 0.00 | 0.00 | 41 | 1014.6 |
| 20260503192929 | 79 | 258 | 1.7 | 2.6 | 0.00 | 0.00 | 0.00 | 44 | 1014.7 |
| 20260503192426 | 78 | 102 | 6.1 | 8.7 | 0.00 | 0.00 | 0.00 | 42 | 1014.6 |
| 20260503191921 | 79 | 202 | 7.0 | 8.7 | 0.00 | 0.00 | 0.00 | 39 | 1014.8 |
| 20260503191419 | 79 | 239 | 7.0 | 9.6 | 0.00 | 0.00 | 0.00 | 40 | 1015.0 |
| 20260503190915 | 78 | 253 | 3.5 | 4.3 | 0.00 | 0.00 | 0.00 | 45 | 1015.0 |
| 20260503190413 | 79 | 210 | 4.3 | 4.3 | 0.00 | 0.00 | 0.00 | 39 | 1015.0 |
| 20260503185909 | 78 | 252 | 0.0 | 0.9 | 0.00 | 0.00 | 0.00 | 44 | 1015.0 |
| 20260503185406 | 77 | 309 | 3.5 | 4.3 | 0.00 | 0.00 | 0.00 | 45 | 1015.4 |
| 20260503184905 | 78 | 218 | 7.8 | 9.6 | 0.00 | 0.00 | 0.00 | 40 | 1015.2 |
| 20260503184402 | 76 | 334 | 5.2 | 6.1 | 0.00 | 0.00 | 0.00 | 44 | 1015.3 |
| 20260503183858 | 77 | 220 | 6.1 | 8.7 | 0.00 | 0.00 | 0.00 | 38 | 1015.4 |
| 20260503183355 | 76 | 230 | 2.6 | 3.5 | 0.00 | 0.00 | 0.00 | 44 | 1015.3 |
| 20260503182852 | 76 | 61 | 4.3 | 7.0 | 0.00 | 0.00 | 0.00 | 41 | 1015.3 |
| 20260503182351 | 76 | 251 | 0.0 | 0.9 | 0.00 | 0.00 | 0.00 | 44 | 1015.6 |
| 20260503181847 | 76 | 188 | 10.4 | 13.0 | 0.00 | 0.00 | 0.00 | 41 | 1015.6 |
| 20260503181345 | 77 | 188 | 7.8 | 9.6 | 0.00 | 0.00 | 0.00 | 42 | 1015.8 |
| 20260503180841 | 76 | 277 | 1.7 | 2.6 | 0.00 | 0.00 | 0.00 | 46 | 1015.8 |
| 20260503180339 | 76 | 221 | 6.1 | 8.7 | 0.00 | 0.00 | 0.00 | 45 | 1015.9 |
| 20260503175835 | 75 | 237 | 3.5 | 4.3 | 0.00 | 0.00 | 0.00 | 44 | 1016.1 |
| 20260503175334 | 76 | 228 | 7.8 | 8.7 | 0.00 | 0.00 | 0.00 | 42 | 1016.3 |
| 20260503174834 | 75 | 239 | 3.5 | 3.5 | 0.00 | 0.00 | 0.00 | 46 | 1016.3 |
| 20260503174334 | 74 | 270 | 1.7 | 2.6 | 0.00 | 0.00 | 0.00 | 43 | 1016.3 |
| 20260503173834 | 74 | 231 | 5.2 | 7.0 | 0.00 | 0.00 | 0.00 | 45 | 1016.4 |
| 20260503173330 | 74 | 233 | 2.6 | 3.5 | 0.00 | 0.00 | 0.00 | 45 | 1016.5 |
| 20260503172827 | 75 | 229 | 3.5 | 4.3 | 0.00 | 0.00 | 0.00 | 47 | 1016.7 |
| 20260503172325 | 75 | 200 | 4.3 | 6.1 | 0.00 | 0.00 | 0.00 | 42 | 1016.6 |
| 20260503171820 | 75 | 240 | 2.6 | 3.5 | 0.00 | 0.00 | 0.00 | 45 | 1016.6 |
| 20260503171318 | 74 | 206 | 0.9 | 2.6 | 0.00 | 0.00 | 0.00 | 46 | 1016.6 |
| 20260503170815 | 74 | 318 | 1.7 | 2.6 | 0.00 | 0.00 | 0.00 | 48 | 1016.7 |
| 20260503170311 | 74 | 229 | 3.5 | 4.3 | 0.00 | 0.00 | 0.00 | 44 | 1016.8 |
| 20260503150704 | 66 | 209 | 9.6 | 10.4 | 0.00 | 0.00 | 0.00 | 49 | 1018.0 |
| 20260503150200 | 65 | 212 | 0.9 | 2.6 | 0.00 | 0.00 | 0.00 | 53 | 1018.1 |
| 20260503140124 | 57 | 195 | 3.5 | 4.3 | 0.00 | 0.00 | 0.00 | 66 | 1018.6 |
| 20260503131053 | 47 | 123 | 0.0 | 0.0 | 0.00 | 0.00 | 0.00 | 99 | 1018.6 |
| 20260503130550 | 46 | 178 | 0.0 | 0.0 | 0.00 | 0.00 | 0.00 | 99 | 1018.8 |
| 20260503110441 | 35 | 280 | 0.0 | 0.0 | 0.00 | 0.00 | 0.00 | 98 | 1018.5 |
| 20260503090332 | 35 | 263 | 0.0 | 0.0 | 0.00 | 0.00 | 0.00 | 98 | 1018.9 |